AAL29 KCLT-KSAV

Flight info

Callsign AAL29
Flight time 0h 34m
Altitude 24000
Route ICONS5 NOOKS CAE CANTR PLZZZ
Aircraft A319/M-SDE3FGHIRWY/LB1

Departure

Time 2026-04-20 23:39
Airport Charlotte Douglas International Airport (KCLT)

Arrival

Time 2026-04-21 00:13
Airport Savannah Hilton Head International Airport (KSAV)
Time Latitude Longitude Altitude Speed Heading
2026-04-20 23:13 35.21792 -80.94483 723 ft 0 kts 288°
2026-04-20 23:21 35.21792 -80.94481 721 ft 2 kts 288°
2026-04-20 23:21 35.21784 -80.94451 722 ft 4 kts 288°
2026-04-20 23:21 35.21779 -80.94430 720 ft 4 kts 281°
2026-04-20 23:22 35.21777 -80.94399 720 ft 4 kts 248°
2026-04-20 23:22 35.21790 -80.94382 722 ft 2 kts 178°
2026-04-20 23:22 35.21806 -80.94383 721 ft 0 kts 176°
2026-04-20 23:27 35.21796 -80.94382 722 ft 3 kts 175°
2026-04-20 23:28 35.21768 -80.94378 721 ft 5 kts 174°
2026-04-20 23:28 35.21736 -80.94365 722 ft 6 kts 145°
2026-04-20 23:28 35.21699 -80.94328 722 ft 8 kts 143°
2026-04-20 23:28 35.21653 -80.94276 722 ft 10 kts 123°
2026-04-20 23:29 35.21645 -80.94187 722 ft 11 kts 72°
2026-04-20 23:29 35.21680 -80.94123 724 ft 7 kts 50°
2026-04-20 23:29 35.21711 -80.94077 726 ft 8 kts 52°
2026-04-20 23:29 35.21746 -80.94020 724 ft 9 kts 52°
2026-04-20 23:30 35.21763 -80.93986 725 ft 1 kts 72°
2026-04-20 23:30 35.21764 -80.93969 724 ft 3 kts 85°
2026-04-20 23:30 35.21760 -80.93945 727 ft 0 kts 109°
2026-04-20 23:30 35.21755 -80.93934 726 ft 3 kts 121°
2026-04-20 23:31 35.21736 -80.93909 725 ft 5 kts 137°
2026-04-20 23:31 35.21702 -80.93870 724 ft 8 kts 135°
2026-04-20 23:31 35.21662 -80.93814 724 ft 9 kts 131°
2026-04-20 23:31 35.21615 -80.93747 723 ft 10 kts 130°
2026-04-20 23:32 35.21572 -80.93691 723 ft 10 kts 141°
2026-04-20 23:32 35.21511 -80.93670 723 ft 10 kts 175°
2026-04-20 23:32 35.21435 -80.93663 722 ft 12 kts 175°
2026-04-20 23:32 35.21347 -80.93653 723 ft 13 kts 175°
2026-04-20 23:33 35.21259 -80.93644 720 ft 12 kts 175°
2026-04-20 23:33 35.21174 -80.93636 719 ft 12 kts 175°
2026-04-20 23:33 35.21094 -80.93629 719 ft 9 kts 176°
2026-04-20 23:33 35.21020 -80.93624 718 ft 12 kts 178°
2026-04-20 23:34 35.20952 -80.93620 721 ft 9 kts 177°
2026-04-20 23:34 35.20895 -80.93617 721 ft 9 kts 176°
2026-04-20 23:34 35.20827 -80.93609 719 ft 10 kts 175°
2026-04-20 23:34 35.20750 -80.93601 717 ft 10 kts 175°
2026-04-20 23:35 35.20685 -80.93595 716 ft 9 kts 176°
2026-04-20 23:35 35.20541 -80.93584 716 ft 9 kts 176°
2026-04-20 23:35 35.20480 -80.93579 717 ft 8 kts 176°
2026-04-20 23:36 35.20417 -80.93575 714 ft 9 kts 176°
2026-04-20 23:36 35.20356 -80.93569 715 ft 10 kts 174°
2026-04-20 23:36 35.20286 -80.93561 713 ft 8 kts 175°
2026-04-20 23:36 35.20236 -80.93557 712 ft 5 kts 176°
2026-04-20 23:37 35.20210 -80.93555 713 ft 0 kts 176°
2026-04-20 23:37 35.20204 -80.93554 712 ft 2 kts 176°
2026-04-20 23:37 35.20177 -80.93552 711 ft 5 kts 176°
2026-04-20 23:37 35.20132 -80.93540 712 ft 7 kts 149°
2026-04-20 23:38 35.20112 -80.93484 709 ft 8 kts 90°
2026-04-20 23:38 35.20143 -80.93428 711 ft 8 kts 26°
2026-04-20 23:38 35.20207 -80.93423 712 ft 15 kts 357°
2026-04-20 23:38 35.20651 -80.93464 719 ft 114 kts 355°
2026-04-20 23:39 35.21675 -80.93555 1073 ft 158 kts 353°
2026-04-20 23:39 35.22789 -80.93648 2057 ft 162 kts 352°
2026-04-20 23:39 35.23937 -80.93785 2961 ft 175 kts 351°
2026-04-20 23:39 35.25235 -80.93951 3765 ft 200 kts 352°
2026-04-20 23:40 35.26710 -80.94136 4613 ft 225 kts 352°
2026-04-20 23:40 35.28359 -80.94333 5277 ft 249 kts 352°
2026-04-20 23:40 35.30052 -80.94853 6261 ft 254 kts 330°
2026-04-20 23:40 35.31403 -80.96230 7317 ft 256 kts 305°
2026-04-20 23:41 35.32079 -80.98209 8392 ft 260 kts 279°
2026-04-20 23:41 35.31918 -81.00413 9528 ft 266 kts 253°
2026-04-20 23:41 35.30885 -81.02322 10605 ft 279 kts 226°
2026-04-20 23:41 35.29116 -81.03412 11551 ft 299 kts 195°
2026-04-20 23:42 35.26949 -81.03478 12139 ft 327 kts 181°
2026-04-20 23:42 35.24602 -81.03222 12670 ft 348 kts 177°
2026-04-20 23:42 35.22169 -81.02835 13479 ft 358 kts 176°
2026-04-20 23:42 35.19680 -81.02402 14292 ft 365 kts 175°
2026-04-20 23:43 35.17141 -81.01969 15056 ft 372 kts 176°
2026-04-20 23:43 35.14551 -81.01556 15803 ft 379 kts 177°
2026-04-20 23:43 35.11913 -81.01167 16549 ft 385 kts 178°
2026-04-20 23:43 35.09227 -81.00792 17296 ft 392 kts 178°
2026-04-20 23:44 35.06487 -81.00422 18047 ft 399 kts 178°
2026-04-20 23:44 35.03708 -81.00049 18747 ft 405 kts 178°
2026-04-20 23:44 35.00887 -80.99665 19376 ft 411 kts 178°
2026-04-20 23:44 34.98024 -80.99268 20016 ft 417 kts 178°
2026-04-20 23:45 34.95127 -80.98866 20657 ft 422 kts 178°
2026-04-20 23:45 34.92192 -80.98459 21288 ft 427 kts 178°
2026-04-20 23:45 34.89222 -80.98049 21874 ft 432 kts 179°
2026-04-20 23:45 34.86214 -80.97636 22504 ft 437 kts 179°
2026-04-20 23:46 34.83176 -80.97220 23137 ft 442 kts 179°
2026-04-20 23:46 34.80111 -80.96823 23761 ft 445 kts 182°
2026-04-20 23:46 34.77020 -80.96783 24108 ft 444 kts 188°
2026-04-20 23:46 34.73932 -80.96868 24205 ft 442 kts 188°
2026-04-20 23:47 34.70875 -80.96959 24228 ft 438 kts 188°
2026-04-20 23:47 34.67835 -80.97058 24229 ft 437 kts 188°
2026-04-20 23:47 34.64800 -80.97164 24202 ft 436 kts 188°
2026-04-20 23:47 34.61779 -80.97272 24233 ft 435 kts 189°
2026-04-20 23:48 34.58769 -80.97454 24230 ft 433 kts 191°
2026-04-20 23:48 34.55771 -80.97722 24231 ft 431 kts 192°
2026-04-20 23:48 34.52778 -80.98035 24229 ft 431 kts 192°
2026-04-20 23:48 34.49795 -80.98362 24231 ft 431 kts 192°
2026-04-20 23:49 34.46804 -80.98682 24232 ft 431 kts 192°
2026-04-20 23:49 34.43815 -80.98986 24237 ft 431 kts 192°
2026-04-20 23:49 34.40824 -80.99274 24236 ft 432 kts 191°
2026-04-20 23:49 34.37826 -80.99552 24217 ft 431 kts 191°
2026-04-20 23:50 34.34836 -80.99824 24225 ft 431 kts 191°
2026-04-20 23:50 34.31843 -81.00097 24230 ft 431 kts 191°
2026-04-20 23:50 34.28849 -81.00372 24231 ft 431 kts 191°
2026-04-20 23:50 34.25862 -81.00650 24234 ft 431 kts 191°
2026-04-20 23:51 34.22875 -81.00927 24232 ft 431 kts 191°
2026-04-20 23:51 34.19883 -81.01206 24234 ft 431 kts 191°
2026-04-20 23:51 34.16893 -81.01488 24235 ft 431 kts 191°
2026-04-20 23:51 34.13905 -81.01771 24207 ft 431 kts 191°
2026-04-20 23:52 34.10923 -81.02048 24221 ft 430 kts 191°
2026-04-20 23:52 34.07937 -81.02324 24231 ft 430 kts 191°
2026-04-20 23:52 34.04954 -81.02597 24237 ft 430 kts 191°
2026-04-20 23:52 34.01965 -81.02871 24241 ft 430 kts 191°
2026-04-20 23:53 33.98982 -81.03147 24243 ft 430 kts 191°
2026-04-20 23:53 33.96014 -81.03485 24246 ft 428 kts 194°
2026-04-20 23:53 33.93068 -81.03942 24247 ft 426 kts 195°
2026-04-20 23:53 33.90139 -81.04477 24229 ft 425 kts 196°
2026-04-20 23:54 33.87221 -81.05038 24209 ft 424 kts 197°
2026-04-20 23:54 33.84304 -81.05590 24216 ft 425 kts 196°
2026-04-20 23:54 33.81373 -81.06083 24221 ft 425 kts 194°
2026-04-20 23:54 33.78434 -81.06522 24224 ft 426 kts 194°
2026-04-20 23:55 33.75490 -81.06931 24229 ft 426 kts 193°
2026-04-20 23:55 33.72541 -81.07330 24229 ft 426 kts 194°
2026-04-20 23:55 33.69592 -81.07732 24227 ft 426 kts 194°
2026-04-20 23:55 33.66651 -81.08143 24228 ft 426 kts 194°
2026-04-20 23:56 33.63713 -81.08566 24228 ft 425 kts 194°
2026-04-20 23:56 33.60771 -81.08995 24200 ft 425 kts 194°
2026-04-20 23:56 33.57830 -81.09426 24202 ft 426 kts 194°
2026-04-20 23:56 33.54932 -81.09851 24205 ft 426 kts 194°
2026-04-20 23:57 33.51987 -81.10281 24207 ft 426 kts 194°
2026-04-20 23:57 33.49041 -81.10706 24211 ft 427 kts 194°
2026-04-20 23:57 33.46102 -81.11125 24013 ft 423 kts 194°
2026-04-20 23:57 33.43188 -81.11538 23507 ft 421 kts 194°
2026-04-20 23:58 33.40294 -81.11951 23027 ft 417 kts 194°
2026-04-20 23:58 33.37429 -81.12358 22567 ft 413 kts 194°
2026-04-20 23:58 33.34585 -81.12766 22081 ft 410 kts 194°
2026-04-20 23:58 33.31770 -81.13180 21614 ft 406 kts 194°
2026-04-20 23:59 33.28972 -81.13596 21130 ft 404 kts 194°
2026-04-20 23:59 33.26195 -81.14010 20648 ft 401 kts 194°
2026-04-20 23:59 33.23434 -81.14422 20158 ft 399 kts 194°
2026-04-20 23:59 33.20685 -81.14832 19676 ft 397 kts 193°
2026-04-21 00:00 33.17954 -81.15238 19193 ft 395 kts 193°
2026-04-21 00:00 33.15229 -81.15645 18714 ft 394 kts 193°
2026-04-21 00:00 33.12517 -81.16049 18195 ft 392 kts 193°
2026-04-21 00:00 33.09820 -81.16447 17710 ft 389 kts 193°
2026-04-21 00:01 33.07144 -81.16838 17247 ft 386 kts 193°
2026-04-21 00:01 33.04467 -81.17229 16527 ft 390 kts 192°
2026-04-21 00:01 33.01788 -81.17620 16059 ft 387 kts 192°
2026-04-21 00:01 32.99122 -81.18010 15593 ft 384 kts 192°
2026-04-21 00:02 32.96484 -81.18395 15137 ft 380 kts 192°
2026-04-21 00:02 32.93868 -81.18779 14678 ft 378 kts 192°
2026-04-21 00:02 32.91273 -81.19160 14222 ft 375 kts 191°
2026-04-21 00:02 32.88690 -81.19540 13722 ft 372 kts 191°
2026-04-21 00:03 32.86132 -81.19916 13258 ft 368 kts 191°
2026-04-21 00:03 32.83600 -81.20290 12778 ft 364 kts 191°
2026-04-21 00:03 32.81101 -81.20660 12328 ft 360 kts 191°
2026-04-21 00:03 32.78623 -81.21024 11863 ft 357 kts 191°
2026-04-21 00:04 32.76166 -81.21383 11397 ft 355 kts 191°
2026-04-21 00:04 32.73727 -81.21738 10930 ft 352 kts 189°
2026-04-21 00:04 32.71274 -81.21768 10460 ft 353 kts 180°
2026-04-21 00:04 32.68836 -81.21661 10192 ft 344 kts 180°
2026-04-21 00:05 32.66491 -81.21556 10084 ft 331 kts 180°
2026-04-21 00:05 32.64228 -81.21454 9895 ft 321 kts 180°
2026-04-21 00:05 32.62747 -81.21389 9553 ft 322 kts 180°
2026-04-21 00:05 32.59758 -81.21260 8936 ft 321 kts 180°
2026-04-21 00:06 32.58273 -81.21198 8519 ft 324 kts 180°
2026-04-21 00:06 32.56007 -81.21106 7910 ft 327 kts 179°
2026-04-21 00:06 32.53732 -81.21014 7315 ft 328 kts 179°
2026-04-21 00:06 32.51451 -81.20921 6729 ft 328 kts 179°
2026-04-21 00:07 32.49176 -81.20827 6118 ft 327 kts 179°
2026-04-21 00:07 32.46905 -81.20732 5511 ft 325 kts 179°
2026-04-21 00:07 32.44649 -81.20635 4912 ft 324 kts 179°
2026-04-21 00:07 32.42406 -81.20539 4297 ft 322 kts 179°
2026-04-21 00:08 32.40171 -81.20447 3705 ft 320 kts 179°
2026-04-21 00:08 32.37952 -81.20356 3096 ft 318 kts 179°
2026-04-21 00:08 32.35754 -81.20266 2616 ft 312 kts 179°
2026-04-21 00:08 32.33646 -81.20178 2502 ft 294 kts 179°
2026-04-21 00:09 32.31671 -81.20120 2511 ft 273 kts 180°
2026-04-21 00:09 32.29842 -81.20098 2516 ft 253 kts 181°
2026-04-21 00:09 32.27616 -81.20087 2516 ft 231 kts 180°
2026-04-21 00:09 32.26554 -81.20084 2511 ft 220 kts 181°
2026-04-21 00:10 32.25098 -81.20079 2381 ft 202 kts 181°
2026-04-21 00:10 32.23723 -81.20074 2071 ft 193 kts 180°
2026-04-21 00:10 32.22423 -81.20069 1799 ft 180 kts 180°
2026-04-21 00:10 32.21243 -81.20064 1576 ft 164 kts 180°
2026-04-21 00:11 32.20158 -81.20058 1374 ft 143 kts 179°
2026-04-21 00:11 32.19216 -81.20051 1174 ft 130 kts 179°
2026-04-21 00:11 32.18336 -81.20044 1018 ft 124 kts 178°
2026-04-21 00:11 32.17496 -81.20039 850 ft 121 kts 179°
2026-04-21 00:12 32.16660 -81.20034 698 ft 118 kts 180°
2026-04-21 00:12 32.15834 -81.20030 538 ft 118 kts 178°
2026-04-21 00:12 32.15009 -81.20023 374 ft 120 kts 176°
2026-04-21 00:12 32.14179 -81.20003 267 ft 119 kts 177°
2026-04-21 00:13 32.13362 -81.20008 101 ft 116 kts 181°
2026-04-21 00:13 32.12744 -81.20027 53 ft 41 kts 180°
2026-04-21 00:13 32.12492 -81.20028 49 ft 35 kts 180°
2026-04-21 00:13 32.12259 -81.20023 49 ft 17 kts 178°
2026-04-21 00:14 32.12165 -81.20042 48 ft 7 kts 207°
2026-04-21 00:14 32.12150 -81.20089 48 ft 8 kts 264°
2026-04-21 00:14 32.12164 -81.20162 46 ft 11 kts 306°
2026-04-21 00:14 32.12242 -81.20193 46 ft 13 kts 353°
2026-04-21 00:15 32.12337 -81.20199 48 ft 14 kts 360°
2026-04-21 00:15 32.12439 -81.20202 50 ft 15 kts 357°
2026-04-21 00:15 32.12548 -81.20236 48 ft 18 kts 334°
2026-04-21 00:15 32.12665 -81.20307 49 ft 20 kts 336°
2026-04-21 00:16 32.12792 -81.20330 51 ft 19 kts 359°
2026-04-21 00:16 32.12926 -81.20329 53 ft 20 kts
2026-04-21 00:16 32.13068 -81.20328 51 ft 21 kts 358°
2026-04-21 00:16 32.13224 -81.20329 49 ft 24 kts
2026-04-21 00:17 32.13383 -81.20339 50 ft 22 kts 349°
2026-04-21 00:17 32.13458 -81.20453 48 ft 20 kts 275°
2026-04-21 00:17 32.13482 -81.20610 38 ft 15 kts 294°
2026-04-21 00:17 32.13519 -81.20643 40 ft 0 kts 354°
2026-04-21 00:19 32.16149 -81.20031 605 ft 119 kts 178°
2026-04-21 00:20 32.15326 -81.20028 428 ft 119 kts 179°
2026-04-21 00:20 32.14493 -81.20007 312 ft 119 kts 178°
2026-04-21 00:20 32.13673 -81.19997 151 ft 117 kts 180°
2026-04-21 00:20 32.12907 -81.20029 53 ft 85 kts 180°
2026-04-21 00:21 32.13663 -81.19998 149 ft 117 kts 180°
2026-04-21 00:21 32.12902 -81.20029 53 ft 84 kts 180°
2026-04-21 00:21 32.12586 -81.20029 50 ft 35 kts 180°
2026-04-21 00:21 32.12320 -81.20025 49 ft 39 kts 179°